Date String (YYYY-MM-DD hh:mm:ss) UTC,Instrument flags,Ambient pressure (hPa),Sample flow (lpm),Bypass flow (lpm),Sample temperature (°C),Ambient temperature (°C),ASC tube jacket temperature (°C),LED temperature (°C),Box temperature (°C),Sample RH (%),Span deviation,Mass concentration (μg/m³),Mass concentration (μg/m³),Mass concentration (μg/m³)
DateTimeUTC,F1_M11,P_M11,Q1_M11,Q2_M11,T1_M11,T2_M11,T3_M11,T4_M11,T5_M11,U1_M11,ZSPAN_M11,X2_M11,X0_M11,X1_M11
2022-02-20 11:00:00,,0818.4,5.00,0.00,22.1,21.2,00.0,31.2,23.8,05.9,0000.0,0000.72,0001.20,0000.44
2022-02-20 11:01:00,,0818.4,5.00,0.00,22.1,21.2,00.0,31.2,23.8,05.9,0000.0,0000.75,0001.40,0000.44
2022-02-20 11:02:00,,0818.4,5.01,0.00,22.1,21.2,00.0,31.2,23.7,05.7,0000.0,0000.75,0002.03,0000.44
2022-02-20 11:03:00,,0818.4,4.99,0.00,22.0,21.2,00.0,31.2,23.7,06.0,0000.0,0000.77,0002.05,0000.45
2022-02-20 11:04:00,,0818.4,4.99,0.00,22.0,21.1,00.0,31.2,23.7,06.1,0000.0,0000.77,0002.05,0000.45
2022-02-20 11:05:00,,0818.5,5.01,0.00,22.0,21.1,00.0,31.1,23.7,06.1,0000.0,0000.80,0002.09,0000.47
2022-02-20 11:06:00,,0818.5,4.99,0.00,22.0,21.1,00.0,31.1,23.7,06.1,0000.0,0000.80,0002.11,0000.47
2022-02-20 11:07:00,,0818.5,5.01,0.00,22.0,21.2,00.0,31.1,23.7,05.7,0000.0,0000.79,0002.07,0000.47
2022-02-20 11:08:00,,0818.5,4.99,0.00,22.1,21.9,00.0,31.2,23.9,05.7,0000.0,0000.77,0002.12,0000.48
2022-02-20 11:09:00,,0818.6,5.00,0.00,22.2,22.8,00.0,31.2,24.2,05.5,0000.0,0000.74,0002.07,0000.48
2022-02-20 11:10:00,,0818.5,4.99,0.00,22.4,23.1,00.0,31.2,24.4,05.6,0000.0,0000.73,0002.06,0000.48
2022-02-20 11:11:00,,0818.5,5.01,0.00,22.4,22.8,00.0,31.3,24.3,05.5,0000.0,0000.70,0001.99,0000.48
2022-02-20 11:12:00,,0818.5,5.01,0.00,22.4,22.6,00.0,31.3,24.2,05.7,0000.0,0000.66,0001.82,0000.48
2022-02-20 11:13:00,,0818.5,4.99,0.00,22.4,22.3,00.0,31.3,24.2,05.7,0000.0,0000.63,0001.53,0000.48
2022-02-20 11:14:00,,0818.5,4.99,0.00,22.4,22.1,00.0,31.3,24.2,05.9,0000.0,0000.60,0001.99,0000.47
2022-02-20 11:15:00,,0818.5,5.00,0.00,22.3,21.9,00.0,31.3,24.1,06.0,0000.0,0000.59,0001.98,0000.47
2022-02-20 11:16:00,,0818.5,5.00,0.00,22.3,21.8,00.0,31.3,24.1,05.9,0000.0,0000.58,0002.01,0000.46
2022-02-20 11:17:00,,0818.6,4.99,0.00,22.3,21.7,00.0,31.3,24.0,05.9,0000.0,0000.57,0001.99,0000.45
2022-02-20 11:18:00,,0818.5,5.00,0.00,22.3,21.6,00.0,31.3,24.0,05.8,0000.0,0000.55,0001.98,0000.44
2022-02-20 11:19:00,,0818.7,5.00,0.00,22.2,21.5,00.0,31.3,23.9,05.7,0000.0,0000.53,0001.87,0000.44
2022-02-20 11:20:00,,0818.7,5.01,0.00,22.2,21.4,00.0,31.3,23.9,05.8,0000.0,0000.53,0001.80,0000.44
2022-02-20 11:21:00,,0818.6,4.99,0.00,22.2,21.4,00.0,31.3,23.9,05.9,0000.0,0000.54,0001.83,0000.44
2022-02-20 11:22:00,,0818.6,5.02,0.00,22.2,21.3,00.0,31.2,23.9,06.1,0000.0,0000.55,0001.87,0000.44
2022-02-20 11:23:00,,0818.5,4.99,0.00,22.2,21.3,00.0,31.2,23.9,06.1,0000.0,0000.56,0001.91,0000.44
2022-02-20 11:24:00,,0818.7,5.01,0.00,22.2,21.2,00.0,31.2,23.9,06.0,0000.0,0000.57,0001.46,0000.43
2022-02-20 11:25:00,,0818.7,5.01,0.00,22.1,21.2,00.0,31.2,23.9,06.1,0000.0,0000.57,0000.91,0000.43
2022-02-20 11:26:00,,0818.8,5.00,0.00,22.1,21.2,00.0,31.2,23.8,06.2,0000.0,0000.58,0000.93,0000.43
2022-02-20 11:27:00,,0818.6,5.00,0.00,22.1,21.2,00.0,31.2,23.8,06.3,0000.0,0000.57,0000.91,0000.44
2022-02-20 11:28:00,,0818.4,5.01,0.00,22.1,21.1,00.0,31.2,23.8,06.1,0000.0,0000.58,0000.92,0000.44
2022-02-20 11:29:00,,0818.4,4.99,0.00,22.1,21.1,00.0,31.2,23.8,06.0,0000.0,0000.59,0000.94,0000.45
2022-02-20 11:30:00,,0818.4,5.01,0.00,22.1,21.0,00.0,31.1,23.8,06.2,0000.0,0000.60,0000.92,0000.46
2022-02-20 11:31:00,,0818.5,5.00,0.00,22.1,21.2,00.0,31.1,23.8,06.0,0000.0,0000.60,0000.93,0000.46
2022-02-20 11:32:00,,0818.4,5.00,0.00,22.1,21.9,00.0,31.2,24.0,05.7,0000.0,0000.59,0000.93,0000.45
2022-02-20 11:33:00,,0818.5,5.01,0.00,22.3,22.8,00.0,31.2,24.3,05.6,0000.0,0000.61,0001.00,0000.46
2022-02-20 11:34:00,,0818.5,4.99,0.00,22.4,23.2,00.0,31.3,24.5,05.7,0000.0,0000.63,0001.04,0000.46
2022-02-20 11:35:00,,0818.5,5.01,0.00,22.5,22.9,00.0,31.3,24.4,05.6,0000.0,0000.62,0001.04,0000.46
2022-02-20 11:36:00,,0818.5,4.99,0.00,22.5,22.6,00.0,31.3,24.3,05.5,0000.0,0000.63,0001.05,0000.46
2022-02-20 11:37:00,,0818.6,5.00,0.00,22.4,22.4,00.0,31.3,24.3,05.2,0000.0,0000.62,0001.04,0000.45
2022-02-20 11:38:00,,0818.8,4.99,0.00,22.4,22.2,00.0,31.3,24.2,05.3,0000.0,0000.61,0001.13,0000.45
2022-02-20 11:39:00,,0818.7,5.01,0.00,22.4,22.0,00.0,31.3,24.1,05.5,0000.0,0000.61,0001.12,0000.45
2022-02-20 11:40:00,,0818.7,4.99,0.00,22.4,21.9,00.0,31.3,24.1,05.4,0000.0,0000.59,0001.09,0000.43
2022-02-20 11:41:00,,0818.7,4.99,0.00,22.4,21.8,00.0,31.3,24.1,05.5,0000.0,0000.60,0001.11,0000.42
2022-02-20 11:42:00,,0818.7,5.01,0.00,22.3,21.7,00.0,31.3,24.1,05.8,0000.0,0000.59,0001.10,0000.42
2022-02-20 11:43:00,,0818.8,5.00,0.00,22.3,21.5,00.0,31.3,24.0,05.7,0000.0,0000.58,0001.06,0000.42
2022-02-20 11:44:00,,0818.8,5.00,0.00,22.3,21.5,00.0,31.3,24.0,05.7,0000.0,0000.56,0001.07,0000.41
2022-02-20 11:45:00,,0818.7,5.01,0.00,22.3,21.4,00.0,31.3,24.0,05.6,0000.0,0000.54,0001.63,0000.41
2022-02-20 11:46:00,,0818.7,4.99,0.00,22.3,21.4,00.0,31.3,23.9,05.6,0000.0,0000.57,0002.58,0000.42
2022-02-20 11:47:00,,0818.7,4.98,0.00,22.2,21.3,00.0,31.3,23.9,05.5,0000.0,0000.58,0002.65,0000.42
2022-02-20 11:48:00,,0818.8,5.00,0.00,22.2,21.3,00.0,31.3,23.8,05.7,0000.0,0000.60,0002.68,0000.42
2022-02-20 11:49:00,,0818.8,5.01,0.00,22.2,21.3,00.0,31.3,23.9,05.7,0000.0,0000.60,0002.56,0000.42
2022-02-20 11:50:00,,0818.8,4.99,0.00,22.2,21.3,00.0,31.3,23.9,05.8,0000.0,0000.60,0002.53,0000.42
2022-02-20 11:51:00,,0818.7,5.00,0.00,22.2,21.2,00.0,31.2,23.8,05.8,0000.0,0000.61,0002.56,0000.42
2022-02-20 11:52:00,,0818.7,5.00,0.00,22.1,21.2,00.0,31.2,23.8,05.6,0000.0,0000.60,0002.56,0000.43
2022-02-20 11:53:00,,0818.7,5.00,0.00,22.1,21.2,00.0,31.2,23.8,05.5,0000.0,0000.60,0002.54,0000.43
2022-02-20 11:54:00,,0818.7,5.01,0.00,22.1,21.2,00.0,31.2,23.8,05.4,0000.0,0000.60,0002.79,0000.43
2022-02-20 11:55:00,,0818.7,4.99,0.00,22.1,21.2,00.0,31.2,23.8,05.1,0000.0,0000.60,0002.83,0000.43
2022-02-20 11:56:00,,0818.8,5.01,0.00,22.1,21.5,00.0,31.2,23.8,05.2,0000.0,0000.61,0002.69,0000.43
2022-02-20 11:57:00,,0818.8,5.00,0.00,22.2,22.4,00.0,31.2,24.1,05.4,0000.0,0000.56,0001.25,0000.41
2022-02-20 11:58:00,,0818.9,4.99,0.00,22.4,23.1,00.0,31.3,24.4,05.1,0000.0,0000.57,0001.20,0000.41
2022-02-20 11:59:00,,0818.9,5.00,0.00,22.5,23.0,00.0,31.3,24.4,05.4,0000.0,0000.56,0001.19,0000.41
